Tracking 29892 objects as of 21-Nov-2024
HD Live streaming from Space Station
objects crossing your sky now

STARLINK-2371

Track STARLINK-2371 now!
10-day predictions
STARLINK-2371 is classified as:


NORAD ID: 47911
Int'l Code: 2021-021BD
Perigee: 553.7 km
Apogee: 555.0 km
Inclination: 53.1 °
Period: 95.6 minutes
Semi major axis: 6925 km
RCS: Unknown
Launch date: March 14, 2021
Source: United States (US)
Launch site: AIR FORCE EASTERN TEST RANGE (AFETR)
Your satellite tracking list
Your tracking list is empty




NASA's NSSDC Master Catalog

Two Line Element Set (TLE):
1 47911U 21021BD  24325.26009515  .00018916  00000-0  12853-2 0  9998
2 47911  53.0547 256.6540 0000925  61.5891 298.5191 15.06402784204314
Source of the keplerian elements: AFSPC